Regional Weather Roundup
Issued by NWS

Home | Current Version | Previous Version | Graphics & Text | Print | Product List | Glossary On
Versions: 1 2 3 4 5 6 7 8 9 10 11 12 13 14 15 16 17 18 19 20 21 22 23 24 25 26 27 28 29 30 31 32 33 34 35 36 37 38 39 40 41 42 43 44 45 46 47 48 49 50
000
ASUS44 KMEG 270200
RWRTN
TENNESSEE HOURLY STATE WEATHER ROUNDUP
NATIONAL WEATHER SERVICE MEMPHIS TN
800 PM CST MON JAN 26 2015

TNZ002-004-019-021-049-052-054-088>092-270300-
WEST TENNESSEE

CITY           SKY/WX    TMP DP  RH WIND       PRES   REMARKS
MEMPHIS INTL   PTCLDY    44  32  62 S5        29.97R
NWS MEMPHIS      N/A     41 N/A N/A MISG        N/A
JACKSON        CLEAR     33  28  81 CALM      29.98R
DYERSBURG      CLEAR     34  18  51 E5        29.98S WCI  30
UNION CITY     CLEAR     32  28  86 E5        29.95F WCI  27
PARIS          CLOUDY    36  28  75 SE3       29.96F
LEXINGTON      CLOUDY    37  28  70 CALM      29.97S
SAVANNAH       PTCLDY    36  30  80 CALM      30.01R
$$

TNZ008-025-027-028-033-062-065-066-270300-
NORTH MIDDLE TENNESSEE

CITY           SKY/WX    TMP DP  RH WIND       PRES   REMARKS
NASHVILLE      CLOUDY    34  31  88 CALM      29.98R
CLARKSVILLE    CLOUDY    36  29  75 CALM      29.97F
COOKEVILLE     MOCLDY    32  30  93 CALM      29.95R
CROSSVILLE     CLOUDY    29  26  89 NW3       29.91S
$$

TNZ061-075-076-078-094-096-097-270300-
SOUTH MIDDLE TENNESSEE

CITY           SKY/WX    TMP DP  RH WIND       PRES   REMARKS
FAYETTEVILLE   CLOUDY    34  28  80 MISG      29.96R
TULLAHOMA      CLOUDY    32  28  86 CALM      29.95R
WINCHESTER     CLOUDY    34  30  86 CALM      29.96R
SHELBYVILLE    CLOUDY    36  30  80 CALM      29.98R
$$

TNZ017-018-042-046-047-270300-
NORTHEAST TENNESSEE

CITY           SKY/WX    TMP DP  RH WIND       PRES   REMARKS
TRI CITIES     CLOUDY    30  25  81 W12       29.89S WCI  20
ELIZABETHTON   CLOUDY    28  25  86 W9        29.86F WCI  20
$$

TNZ012-013-036-069-073-074-270300-
CENTRAL EAST TENNESSEE

CITY           SKY/WX    TMP DP  RH WIND       PRES   REMARKS
KNOXVILLE      LGT SNOW  31  26  82 W7        29.96S WCI  24
OAK RIDGE      FLURRIES  32  26  78 W6        29.97S WCI  26
GATLINBURG     CLOUDY    30  27  86 W6        29.94F WCI  24
$$

TNZ083-085-099-270300-
SOUTHEAST TENNESSEE

CITY           SKY/WX    TMP DP  RH WIND       PRES   REMARKS
CHATTANOOGA    LGT SNOW  35  29  78 CALM      29.96F FOG
$$

SKY/WX REPORTED AS FAIR MEANS FEW OR NO CLOUDS BELOW
12 THOUSAND FEET.



USA.gov is the U.S. government's official web portal to all federal, state and local government web resources and services.